Location: Rotheul
(50.2849°N, 11.2349°E)
Time: 07:25:48
(UTC+02:00)

ISS - Pass Details

Date: 23 May 2018
Orbit: 402 x 407 km, 51.6° (Epoch: 24 May)

Event Time Altitude Azimuth Distance (km) Brightness Sun altitude
Rises 02:12:09 0° 285° (WNW) 2,320 0.0 -17.9°
Reaches altitude 10° 02:14:14 10° 284° (WNW) 1,459 -1.0 -17.8°
Maximum altitude 02:17:30 80° 199° (SSW) 413 -4.0 -17.7°
Drops below altitude 10° 02:20:45 10° 111° (ESE) 1,454 -1.1 -17.6°
Sets 02:22:49 0° 110° (ESE) 2,311 0.0 -17.5°
